Time,TemperatureF,DewpointF,PressureIn,WindDirection,WindDirectionDegrees,WindSpeedMPH,WindSpeedGustMPH,Humidity,HourlyPrecipIn,Conditions,Clouds,dailyrainin,SoftwareType,DateUTC
2013-04-11 00:00:00,53.5,51.2,29.75,SE,126,0.0,2.0,92,0.00,,-RA,0.19,VWS V14.00,2013-04-11 04:00:00,
2013-04-11 00:05:00,53.5,51.5,29.75,SSE,165,1.0,2.0,93,0.00,,-RA,0.00,VWS V14.00,2013-04-11 04:05:00,
2013-04-11 00:10:00,53.6,51.6,29.75,SSE,164,0.0,1.0,93,0.00,,-RA,0.00,VWS V14.00,2013-04-11 04:10:00,
2013-04-11 00:15:00,53.6,51.6,29.75,ESE,113,1.0,3.0,93,0.00,,-RA,0.00,VWS V14.00,2013-04-11 04:15:00,
2013-04-11 00:20:00,53.6,51.6,29.75,SE,128,0.0,1.0,93,0.00,,-RA,0.00,VWS V14.00,2013-04-11 04:20:00,
2013-04-11 00:25:00,53.6,51.6,29.75,SE,128,0.0,0.0,93,0.00,,-RA,0.00,VWS V14.00,2013-04-11 04:25:00,
2013-04-11 00:30:00,53.6,51.6,29.75,SE,128,1.0,1.0,93,0.00,,-RA,0.00,VWS V14.00,2013-04-11 04:30:00,
2013-04-11 00:35:00,53.8,51.8,29.75,ESE,123,0.0,3.0,93,0.00,,-RA,0.00,VWS V14.00,2013-04-11 04:35:00,
2013-04-11 00:40:00,53.8,51.8,29.75,ESE,123,0.0,1.0,93,0.00,,-RA,0.00,VWS V14.00,2013-04-11 04:40:00,
2013-04-11 00:45:00,53.8,51.8,29.76,ESE,123,0.0,0.0,93,0.00,,-RA,0.00,VWS V14.00,2013-04-11 04:45:00,
2013-04-11 00:50:00,53.8,51.8,29.76,ESE,123,1.0,2.0,93,0.00,,-RA,0.00,VWS V14.00,2013-04-11 04:50:00,
2013-04-11 00:55:00,53.8,51.8,29.76,ESE,123,0.0,0.0,93,0.00,,-RA,0.00,VWS V14.00,2013-04-11 04:55:00,
2013-04-11 01:00:00,53.8,51.8,29.75,ESE,123,2.0,2.0,93,0.00,,-RA,0.00,VWS V14.00,2013-04-11 05:00:00,
2013-04-11 01:05:00,53.8,51.8,29.75,ESE,123,1.0,1.0,93,0.00,,-RA,0.00,VWS V14.00,2013-04-11 05:05:00,
2013-04-11 01:10:00,53.8,51.8,29.75,ESE,123,1.0,2.0,93,0.00,,-RA,0.00,VWS V14.00,2013-04-11 05:10:00,
2013-04-11 01:15:00,53.8,51.8,29.75,ESE,123,0.0,0.0,93,0.00,,-RA,0.00,VWS V14.00,2013-04-11 05:15:00,
2013-04-11 01:20:00,53.8,51.8,29.75,ESE,123,0.0,0.0,93,0.00,,-RA,0.00,VWS V14.00,2013-04-11 05:20:00,
2013-04-11 01:25:00,53.8,52.1,29.75,ESE,123,0.0,0.0,94,0.00,,-RA,0.00,VWS V14.00,2013-04-11 05:25:00,
2013-04-11 01:30:00,53.9,52.2,29.76,ESE,123,0.0,0.0,94,0.00,,-RA,0.00,VWS V14.00,2013-04-11 05:30:00,
2013-04-11 01:35:00,53.9,52.2,29.76,ESE,123,0.0,0.0,94,0.00,,-RA,0.00,VWS V14.00,2013-04-11 05:35:00,
2013-04-11 01:40:00,53.9,52.2,29.76,ESE,123,0.0,0.0,94,0.00,,-RA,0.00,VWS V14.00,2013-04-11 05:40:00,
2013-04-11 01:46:00,53.8,52.1,29.77,ESE,123,1.0,1.0,94,0.00,,,0.00,VWS V14.00,2013-04-11 05:46:00,
2013-04-11 01:50:00,53.8,52.1,29.77,East,87,1.0,1.0,94,0.00,,,0.00,VWS V14.00,2013-04-11 05:50:00,
2013-04-11 01:55:00,53.8,52.1,29.77,East,87,0.0,0.0,94,0.00,,,0.00,VWS V14.00,2013-04-11 05:55:00,
2013-04-11 02:01:00,53.8,52.1,29.75,NW,323,2.0,3.0,94,0.00,,,0.00,VWS V14.00,2013-04-11 06:01:00,
2013-04-11 02:06:00,53.8,52.1,29.75,WNW,289,1.0,4.0,94,0.00,,,0.00,VWS V14.00,2013-04-11 06:06:00,
2013-04-11 02:11:00,53.8,52.1,29.75,WNW,297,3.0,4.0,94,0.00,,,0.00,VWS V14.00,2013-04-11 06:11:00,
2013-04-11 02:16:00,53.8,52.1,29.75,WNW,297,1.0,4.0,94,0.00,,,0.00,VWS V14.00,2013-04-11 06:16:00,
2013-04-11 02:21:00,53.6,51.9,29.75,North,5,3.0,7.0,94,0.00,,,0.00,VWS V14.00,2013-04-11 06:21:00,
2013-04-11 02:26:00,53.6,51.9,29.75,North,355,1.0,4.0,94,0.00,,,0.00,VWS V14.00,2013-04-11 06:26:00,
2013-04-11 02:31:00,53.5,51.8,29.74,WNW,303,0.0,4.0,94,0.00,,,0.00,VWS V14.00,2013-04-11 06:31:00,
2013-04-11 02:36:00,53.2,51.5,29.74,North,11,2.0,3.0,94,0.00,,,0.00,VWS V14.00,2013-04-11 06:36:00,
2013-04-11 02:41:00,53.1,51.4,29.74,NNE,15,1.0,3.0,94,0.00,,,0.00,VWS V14.00,2013-04-11 06:41:00,
2013-04-11 02:46:00,52.9,51.2,29.72,WNW,300,1.0,6.0,94,0.00,,,0.00,VWS V14.00,2013-04-11 06:46:00,
2013-04-11 02:51:00,52.8,51.1,29.72,NW,314,0.0,4.0,94,0.00,,,0.00,VWS V14.00,2013-04-11 06:51:00,
2013-04-11 02:56:00,52.6,50.9,29.72,NW,317,0.0,2.0,94,0.00,,,0.00,VWS V14.00,2013-04-11 06:56:00,
2013-04-11 03:01:00,52.6,50.9,29.73,NW,317,1.0,3.0,94,0.00,,,0.00,VWS V14.00,2013-04-11 07:01:00,
2013-04-11 03:06:00,52.6,50.9,29.73,NNW,340,0.0,1.0,94,0.00,,,0.00,VWS V14.00,2013-04-11 07:06:00,
2013-04-11 03:12:00,52.5,50.8,29.73,NNW,340,0.0,1.0,94,0.00,,,0.00,VWS V14.00,2013-04-11 07:12:00,
2013-04-11 03:17:00,52.5,50.8,29.75,West,279,0.0,2.0,94,0.00,,,0.00,VWS V14.00,2013-04-11 07:17:00,
2013-04-11 03:22:00,52.2,50.5,29.75,West,281,2.0,4.0,94,0.00,,,0.00,VWS V14.00,2013-04-11 07:22:00,
2013-04-11 03:27:00,52.0,50.3,29.75,NW,314,3.0,4.0,94,0.00,,,0.00,VWS V14.00,2013-04-11 07:27:00,
2013-04-11 03:32:00,51.7,50.0,29.76,WNW,286,3.0,7.0,94,0.00,,,0.00,VWS V14.00,2013-04-11 07:32:00,
2013-04-11 03:37:00,51.6,49.9,29.76,WNW,291,4.0,7.0,94,0.00,,,0.00,VWS V14.00,2013-04-11 07:37:00,
2013-04-11 03:42:00,51.4,49.7,29.76,West,281,2.0,5.0,94,0.00,,,0.00,VWS V14.00,2013-04-11 07:42:00,
2013-04-11 03:47:00,51.1,49.4,29.77,NW,306,2.0,5.0,94,0.00,,,0.00,VWS V14.00,2013-04-11 07:47:00,
2013-04-11 03:52:00,51.0,49.3,29.77,NW,308,5.0,5.0,94,0.00,,,0.00,VWS V14.00,2013-04-11 07:52:00,
2013-04-11 03:57:00,51.0,49.3,29.77,WNW,288,2.0,4.0,94,0.00,,,0.00,VWS V14.00,2013-04-11 07:57:00,
2013-04-11 04:02:00,50.7,49.0,29.77,WNW,293,2.0,7.0,94,0.00,,,0.00,VWS V14.00,2013-04-11 08:02:00,
2013-04-11 04:07:00,50.5,48.8,29.77,NNW,337,2.0,5.0,94,0.00,,,0.00,VWS V14.00,2013-04-11 08:07:00,
2013-04-11 04:12:00,50.5,48.8,29.77,WNW,302,4.0,5.0,94,0.00,,,0.00,VWS V14.00,2013-04-11 08:12:00,
2013-04-11 04:17:00,50.4,48.7,29.75,North,5,0.0,2.0,94,0.00,,,0.00,VWS V14.00,2013-04-11 08:17:00,
2013-04-11 04:22:00,50.4,48.7,29.75,NW,321,0.0,2.0,94,0.00,,,0.00,VWS V14.00,2013-04-11 08:22:00,
2013-04-11 04:27:00,50.2,48.5,29.75,NW,308,5.0,6.0,94,0.00,,,0.00,VWS V14.00,2013-04-11 08:27:00,
2013-04-11 04:32:00,50.1,48.4,29.77,NW,315,3.0,3.0,94,0.00,,,0.00,VWS V14.00,2013-04-11 08:32:00,
2013-04-11 04:37:00,49.8,48.2,29.77,NW,316,1.0,10.0,94,0.00,,,0.00,VWS V14.00,2013-04-11 08:37:00,
2013-04-11 04:42:00,49.4,47.5,29.77,WNW,293,6.0,9.0,93,0.00,,,0.00,VWS V14.00,2013-04-11 08:42:00,
2013-04-11 04:47:00,48.8,46.9,29.78,WNW,285,1.0,8.0,93,0.00,,OVC018,0.00,VWS V14.00,2013-04-11 08:47:00,
2013-04-11 04:52:00,48.5,46.6,29.78,NNE,24,0.0,3.0,93,0.00,,OVC018,0.00,VWS V14.00,2013-04-11 08:52:00,
2013-04-11 04:57:00,48.2,46.3,29.78,West,276,3.0,10.0,93,0.00,,OVC018,0.00,VWS V14.00,2013-04-11 08:57:00,
2013-04-11 05:02:00,48.0,46.1,29.78,NW,306,1.0,1.0,93,0.00,,OVC018,0.00,VWS V14.00,2013-04-11 09:02:00,
2013-04-11 05:07:00,47.9,46.0,29.78,NW,306,1.0,4.0,93,0.00,,OVC018,0.00,VWS V14.00,2013-04-11 09:07:00,
2013-04-11 05:12:00,47.7,45.8,29.78,NW,315,7.0,7.0,93,0.00,,OVC018,0.00,VWS V14.00,2013-04-11 09:12:00,
2013-04-11 05:17:00,47.7,45.8,29.80,NW,314,4.0,10.0,93,0.00,,OVC018,0.00,VWS V14.00,2013-04-11 09:17:00,
2013-04-11 05:23:00,47.6,45.7,29.80,NNW,339,3.0,5.0,93,0.00,,OVC018,0.00,VWS V14.00,2013-04-11 09:23:00,
2013-04-11 05:28:00,47.3,45.4,29.80,WNW,302,3.0,6.0,93,0.00,,OVC018,0.00,VWS V14.00,2013-04-11 09:28:00,
2013-04-11 05:33:00,47.1,44.9,29.80,North,350,2.0,6.0,92,0.00,,OVC018,0.00,VWS V14.00,2013-04-11 09:33:00,
2013-04-11 05:38:00,47.0,44.8,29.80,NNE,17,0.0,0.0,92,0.00,,OVC018,0.00,VWS V14.00,2013-04-11 09:38:00,
2013-04-11 05:43:00,47.0,44.8,29.80,North,351,1.0,5.0,92,0.00,,OVC018,0.00,VWS V14.00,2013-04-11 09:43:00,
2013-04-11 05:48:00,46.8,44.6,29.80,NW,320,5.0,5.0,92,0.00,,OVC029,0.00,VWS V14.00,2013-04-11 09:48:00,
2013-04-11 05:53:00,46.8,44.6,29.80,WNW,300,4.0,7.0,92,0.00,,OVC029,0.00,VWS V14.00,2013-04-11 09:53:00,
2013-04-11 05:58:00,46.7,44.5,29.80,NNW,340,3.0,3.0,92,0.00,,OVC029,0.00,VWS V14.00,2013-04-11 09:58:00,
2013-04-11 06:03:00,46.7,44.5,29.81,NW,318,4.0,7.0,92,0.00,,OVC029,0.00,VWS V14.00,2013-04-11 10:03:00,
2013-04-11 06:08:00,46.5,44.3,29.81,NW,320,2.0,6.0,92,0.00,,OVC029,0.00,VWS V14.00,2013-04-11 10:08:00,
2013-04-11 06:13:00,46.5,44.3,29.81,WNW,298,3.0,6.0,92,0.00,,OVC029,0.00,VWS V14.00,2013-04-11 10:13:00,
2013-04-11 06:18:00,46.4,44.2,29.83,NW,305,4.0,7.0,92,0.00,,OVC029,0.00,VWS V14.00,2013-04-11 10:18:00,
2013-04-11 06:23:00,46.4,44.2,29.83,NW,304,6.0,8.0,92,0.00,,OVC029,0.00,VWS V14.00,2013-04-11 10:23:00,
2013-04-11 06:28:00,46.2,44.0,29.83,NW,311,2.0,3.0,92,0.00,,OVC029,0.00,VWS V14.00,2013-04-11 10:28:00,
2013-04-11 06:33:00,46.2,44.0,29.85,NW,315,0.0,1.0,92,0.00,,OVC018,0.00,VWS V14.00,2013-04-11 10:33:00,
2013-04-11 06:38:00,46.2,44.0,29.85,North,5,0.0,5.0,92,0.00,,OVC018,0.00,VWS V14.00,2013-04-11 10:38:00,
2013-04-11 06:43:00,46.2,44.0,29.85,NNE,26,2.0,2.0,92,0.00,,OVC018,0.00,VWS V14.00,2013-04-11 10:43:00,
2013-04-11 06:48:00,46.2,44.0,29.85,North,9,2.0,4.0,92,0.00,,OVC033,0.00,VWS V14.00,2013-04-11 10:48:00,
2013-04-11 06:53:00,46.2,44.0,29.85,NNE,24,1.0,4.0,92,0.00,,OVC033,0.00,VWS V14.00,2013-04-11 10:53:00,
2013-04-11 06:58:00,46.1,43.9,29.85,NW,319,4.0,6.0,92,0.00,,OVC033,0.00,VWS V14.00,2013-04-11 10:58:00,
2013-04-11 07:03:00,46.1,43.9,29.86,WNW,302,2.0,4.0,92,0.00,,OVC025,0.00,VWS V14.00,2013-04-11 11:03:00,
2013-04-11 07:08:00,46.1,43.9,29.86,North,360,3.0,5.0,92,0.00,,OVC025,0.00,VWS V14.00,2013-04-11 11:08:00,
2013-04-11 07:13:00,46.2,44.0,29.86,NNE,13,0.0,1.0,92,0.00,,OVC025,0.00,VWS V14.00,2013-04-11 11:13:00,
2013-04-11 07:18:00,46.2,44.0,29.86,WNW,293,3.0,5.0,92,0.00,,OVC025,0.00,VWS V14.00,2013-04-11 11:18:00,
2013-04-11 07:23:00,46.2,44.0,29.86,WNW,302,0.0,4.0,92,0.00,,OVC025,0.00,VWS V14.00,2013-04-11 11:23:00,
2013-04-11 07:28:00,46.1,43.9,29.86,NW,321,4.0,4.0,92,0.00,,OVC025,0.00,VWS V14.00,2013-04-11 11:28:00,
2013-04-11 07:33:00,46.1,43.9,29.86,WNW,303,0.0,0.0,92,0.00,,OVC025,0.00,VWS V14.00,2013-04-11 11:33:00,
2013-04-11 07:38:00,46.2,44.0,29.86,WNW,303,1.0,1.0,92,0.00,,OVC025,0.00,VWS V14.00,2013-04-11 11:38:00,
2013-04-11 07:43:00,46.1,43.9,29.86,WNW,292,5.0,5.0,92,0.00,,OVC025,0.00,VWS V14.00,2013-04-11 11:43:00,
2013-04-11 07:48:00,46.1,43.9,29.87,NNE,13,2.0,4.0,92,0.00,,OVC009,0.00,VWS V14.00,2013-04-11 11:48:00,
2013-04-11 07:53:00,46.1,43.9,29.87,NNW,342,1.0,2.0,92,0.00,,OVC009,0.00,VWS V14.00,2013-04-11 11:53:00,
2013-04-11 07:58:00,46.4,44.5,29.87,NNW,342,0.0,2.0,93,0.00,,OVC009,0.00,VWS V14.00,2013-04-11 11:58:00,
2013-04-11 08:03:00,46.4,44.2,29.87,NW,306,0.0,2.0,92,0.00,,OVC009,0.00,VWS V14.00,2013-04-11 12:03:00,
2013-04-11 08:08:00,46.5,44.3,29.87,North,5,0.0,1.0,92,0.00,,OVC009,0.00,VWS V14.00,2013-04-11 12:08:00,
2013-04-11 08:13:00,46.4,44.2,29.87,NW,315,4.0,4.0,92,0.00,,OVC009,0.00,VWS V14.00,2013-04-11 12:13:00,
2013-04-11 08:18:00,46.4,44.2,29.88,NNW,346,0.0,3.0,92,0.00,,OVC009,0.00,VWS V14.00,2013-04-11 12:18:00,
2013-04-11 08:23:00,46.4,44.2,29.88,NW,319,1.0,3.0,92,0.00,,OVC009,0.00,VWS V14.00,2013-04-11 12:23:00,
2013-04-11 08:28:00,46.5,44.3,29.88,WNW,288,3.0,4.0,92,0.00,,OVC009,0.00,VWS V14.00,2013-04-11 12:28:00,
2013-04-11 08:33:00,46.5,44.3,29.89,NW,308,2.0,3.0,92,0.00,,OVC009,0.00,VWS V14.00,2013-04-11 12:33:00,
2013-04-11 08:38:00,46.5,44.3,29.89,WNW,293,3.0,3.0,92,0.00,,OVC009,0.00,VWS V14.00,2013-04-11 12:38:00,
2013-04-11 08:43:00,46.7,44.5,29.89,WNW,295,5.0,5.0,92,0.00,,OVC009,0.00,VWS V14.00,2013-04-11 12:43:00,
2013-04-11 08:48:00,46.7,44.5,29.90,NW,320,1.0,2.0,92,0.00,,OVC009,0.00,VWS V14.00,2013-04-11 12:48:00,
2013-04-11 08:53:00,47.0,44.8,29.90,NW,315,1.0,4.0,92,0.00,,OVC009,0.00,VWS V14.00,2013-04-11 12:53:00,
2013-04-11 08:58:00,47.0,44.8,29.90,WNW,296,2.0,5.0,92,0.00,,OVC009,0.00,VWS V14.00,2013-04-11 12:58:00,
2013-04-11 09:03:00,47.3,45.1,29.90,WNW,296,1.0,2.0,92,0.00,,OVC011,0.00,VWS V14.00,2013-04-11 13:03:00,
2013-04-11 09:08:00,47.7,45.5,29.90,NNW,334,0.0,3.0,92,0.00,,OVC011,0.00,VWS V14.00,2013-04-11 13:08:00,
2013-04-11 09:13:00,47.6,45.1,29.90,WNW,292,0.0,3.0,91,0.00,,OVC011,0.00,VWS V14.00,2013-04-11 13:13:00,
2013-04-11 09:18:00,47.9,45.1,29.89,WNW,292,0.0,1.0,90,0.00,,OVC011,0.00,VWS V14.00,2013-04-11 13:18:00,
2013-04-11 09:23:00,48.6,45.8,29.89,North,351,0.0,1.0,90,0.00,,OVC011,0.00,VWS V14.00,2013-04-11 13:23:00,
2013-04-11 09:28:00,48.6,45.5,29.89,NNW,339,2.0,3.0,89,0.00,,OVC011,0.00,VWS V14.00,2013-04-11 13:28:00,
2013-04-11 09:33:00,48.8,45.7,29.88,WNW,303,3.0,3.0,89,0.00,,OVC011,0.00,VWS V14.00,2013-04-11 13:33:00,
2013-04-11 09:38:00,48.9,45.5,29.88,NNW,328,2.0,6.0,88,0.00,,OVC011,0.00,VWS V14.00,2013-04-11 13:38:00,
2013-04-11 09:43:00,49.1,46.0,29.88,West,281,3.0,5.0,89,0.00,,OVC011,0.00,VWS V14.00,2013-04-11 13:43:00,
2013-04-11 09:48:00,49.2,45.5,29.90,WNW,286,1.0,4.0,87,0.00,,OVC011,0.00,VWS V14.00,2013-04-11 13:48:00,
2013-04-11 09:54:00,49.2,45.2,29.90,WNW,301,1.0,3.0,86,0.00,,OVC011,0.00,VWS V14.00,2013-04-11 13:54:00,
2013-04-11 09:59:00,49.4,45.4,29.90,WNW,297,2.0,4.0,86,0.00,,OVC011,0.00,VWS V14.00,2013-04-11 13:59:00,
2013-04-11 10:04:00,49.5,45.2,29.89,WNW,288,4.0,6.0,85,0.00,,OVC011,0.00,VWS V14.00,2013-04-11 14:04:00,
2013-04-11 10:09:00,49.6,45.3,29.89,WNW,295,1.0,3.0,85,0.00,,OVC011,0.00,VWS V14.00,2013-04-11 14:09:00,
2013-04-11 10:14:00,49.9,45.3,29.89,NW,304,5.0,6.0,84,0.00,,OVC011,0.00,VWS V14.00,2013-04-11 14:14:00,
2013-04-11 10:19:00,50.4,45.8,29.89,WNW,295,3.0,3.0,84,0.00,,OVC011,0.00,VWS V14.00,2013-04-11 14:19:00,
2013-04-11 10:24:00,50.8,45.8,29.89,North,355,2.0,2.0,83,0.00,,OVC011,0.00,VWS V14.00,2013-04-11 14:24:00,
2013-04-11 10:29:00,51.3,46.0,29.89,West,268,4.0,4.0,82,0.00,,OVC011,0.00,VWS V14.00,2013-04-11 14:29:00,
2013-04-11 10:34:00,51.4,45.5,29.90,WNW,301,4.0,5.0,80,0.00,,OVC011,0.00,VWS V14.00,2013-04-11 14:34:00,
2013-04-11 10:39:00,51.7,45.1,29.90,NW,317,4.0,7.0,78,0.00,,OVC011,0.00,VWS V14.00,2013-04-11 14:39:00,
2013-04-11 10:44:00,51.7,45.1,29.90,West,265,2.0,3.0,78,0.00,,OVC011,0.00,VWS V14.00,2013-04-11 14:44:00,
2013-04-11 10:49:00,51.6,45.0,29.90,WNW,291,4.0,8.0,78,0.00,,OVC043,0.00,VWS V14.00,2013-04-11 14:49:00,
2013-04-11 10:54:00,51.6,45.0,29.90,WNW,294,1.0,2.0,78,0.00,,OVC043,0.00,VWS V14.00,2013-04-11 14:54:00,
2013-04-11 10:59:00,51.7,44.7,29.90,NW,311,1.0,4.0,77,0.00,,OVC043,0.00,VWS V14.00,2013-04-11 14:59:00,
2013-04-11 11:04:00,52.2,44.9,29.89,NW,312,3.0,3.0,76,0.00,,OVC043,0.00,VWS V14.00,2013-04-11 15:04:00,
2013-04-11 11:09:00,52.8,45.8,29.89,North,11,2.0,5.0,77,0.00,,OVC043,0.00,VWS V14.00,2013-04-11 15:09:00,
2013-04-11 11:14:00,53.2,45.8,29.89,WNW,294,2.0,2.0,76,0.00,,OVC043,0.00,VWS V14.00,2013-04-11 15:14:00,
2013-04-11 11:19:00,53.1,45.4,29.90,NW,309,3.0,5.0,75,0.00,,OVC043,0.00,VWS V14.00,2013-04-11 15:19:00,
2013-04-11 11:24:00,53.1,45.4,29.90,NNE,14,0.0,1.0,75,0.00,,OVC043,0.00,VWS V14.00,2013-04-11 15:24:00,
2013-04-11 11:29:00,53.2,45.1,29.90,NW,325,1.0,2.0,74,0.00,,OVC043,0.00,VWS V14.00,2013-04-11 15:29:00,
2013-04-11 11:34:00,53.3,44.9,29.90,NE,44,0.0,2.0,73,0.00,,OVC043,0.00,VWS V14.00,2013-04-11 15:34:00,
2013-04-11 11:39:00,54.1,45.3,29.90,WNW,301,4.0,7.0,72,0.00,,OVC043,0.00,VWS V14.00,2013-04-11 15:39:00,
2013-04-11 11:44:00,54.2,45.4,29.90,WNW,291,0.0,2.0,72,0.00,,OVC043,0.00,VWS V14.00,2013-04-11 15:44:00,
2013-04-11 11:49:00,54.1,45.3,29.90,WNW,299,2.0,4.0,72,0.00,,BKN043,0.00,VWS V14.00,2013-04-11 15:49:00,
2013-04-11 11:54:00,54.1,45.3,29.90,NE,38,0.0,1.0,72,0.00,,BKN043,0.00,VWS V14.00,2013-04-11 15:54:00,
2013-04-11 11:59:00,53.9,44.7,29.90,WNW,289,2.0,5.0,71,0.00,,BKN043,0.00,VWS V14.00,2013-04-11 15:59:00,
2013-04-11 12:04:00,54.2,45.0,29.90,WNW,302,3.0,5.0,71,0.00,,BKN043,0.00,VWS V14.00,2013-04-11 16:04:00,
2013-04-11 12:09:00,55.1,45.1,29.90,WNW,302,4.0,5.0,69,0.00,,BKN043,0.00,VWS V14.00,2013-04-11 16:09:00,
2013-04-11 12:14:00,55.6,45.6,29.90,NNE,28,3.0,4.0,69,0.00,,BKN043,0.00,VWS V14.00,2013-04-11 16:14:00,
2013-04-11 12:19:00,55.6,45.2,29.90,NNE,17,4.0,5.0,68,0.00,,BKN043,0.00,VWS V14.00,2013-04-11 16:19:00,
2013-04-11 12:24:00,55.3,44.5,29.90,NW,309,4.0,6.0,67,0.00,,BKN043,0.00,VWS V14.00,2013-04-11 16:24:00,
2013-04-11 12:29:00,55.3,44.9,29.90,NNE,20,3.0,5.0,68,0.00,,BKN043,0.00,VWS V14.00,2013-04-11 16:29:00,
2013-04-11 12:34:00,55.3,44.9,29.90,NW,316,2.0,5.0,68,0.00,,BKN043,0.00,VWS V14.00,2013-04-11 16:34:00,
2013-04-11 12:39:00,55.4,45.4,29.90,East,97,2.0,5.0,69,0.00,,BKN043,0.00,VWS V14.00,2013-04-11 16:39:00,
2013-04-11 12:44:00,55.3,45.7,29.90,North,5,9.0,9.0,70,0.00,,BKN043,0.00,VWS V14.00,2013-04-11 16:44:00,
2013-04-11 12:49:00,55.3,45.7,29.91,North,5,3.0,6.0,70,0.00,,BKN023,0.00,VWS V14.00,2013-04-11 16:49:00,
2013-04-11 12:54:00,55.3,45.3,29.91,North,351,2.0,2.0,69,0.00,,BKN023,0.00,VWS V14.00,2013-04-11 16:54:00,
2013-04-11 12:59:00,55.1,45.1,29.91,ENE,77,1.0,2.0,69,0.00,,BKN023,0.00,VWS V14.00,2013-04-11 16:59:00,
2013-04-11 13:04:00,55.1,45.9,29.91,NNW,339,2.0,6.0,71,0.00,,BKN023,0.00,VWS V14.00,2013-04-11 17:04:00,
2013-04-11 13:09:00,54.8,45.6,29.91,ESE,115,2.0,2.0,71,0.00,,BKN023,0.00,VWS V14.00,2013-04-11 17:09:00,
2013-04-11 13:14:00,54.4,45.6,29.91,ENE,69,0.0,2.0,72,0.00,,BKN023,0.00,VWS V14.00,2013-04-11 17:14:00,
2013-04-11 13:20:00,54.2,45.4,29.91,ENE,64,0.0,1.0,72,0.00,,BKN023,0.00,VWS V14.00,2013-04-11 17:20:00,
2013-04-11 13:25:00,54.4,45.2,29.91,NE,44,1.0,2.0,71,0.00,,BKN023,0.00,VWS V14.00,2013-04-11 17:25:00,
2013-04-11 13:30:00,54.1,45.3,29.91,ENE,69,1.0,3.0,72,0.00,,BKN023,0.00,VWS V14.00,2013-04-11 17:30:00,
2013-04-11 13:35:00,53.9,45.1,29.91,NE,37,2.0,6.0,72,0.00,,BKN023,0.00,VWS V14.00,2013-04-11 17:35:00,
2013-04-11 13:40:00,53.8,45.4,29.91,NNE,33,2.0,2.0,73,0.00,,BKN023,0.00,VWS V14.00,2013-04-11 17:40:00,
2013-04-11 13:45:00,53.8,45.0,29.91,ENE,60,0.0,8.0,72,0.00,,BKN023,0.00,VWS V14.00,2013-04-11 17:45:00,
2013-04-11 13:50:00,53.5,44.7,29.92,NNE,21,2.0,6.0,72,0.00,,OVC035,0.00,VWS V14.00,2013-04-11 17:50:00,
2013-04-11 13:55:00,53.3,44.5,29.92,NNE,30,2.0,5.0,72,0.00,,OVC035,0.00,VWS V14.00,2013-04-11 17:55:00,
2013-04-11 14:00:00,53.2,44.0,29.92,NE,37,0.0,2.0,71,0.00,,OVC035,0.00,VWS V14.00,2013-04-11 18:00:00,
2013-04-11 14:05:00,53.2,44.0,29.92,NNE,24,1.0,4.0,71,0.00,,OVC035,0.00,VWS V14.00,2013-04-11 18:05:00,
2013-04-11 14:10:00,53.3,44.2,29.92,NE,36,1.0,2.0,71,0.00,,OVC035,0.00,VWS V14.00,2013-04-11 18:10:00,
2013-04-11 14:15:00,53.5,44.7,29.92,North,9,7.0,7.0,72,0.00,,OVC035,0.00,VWS V14.00,2013-04-11 18:15:00,
2013-04-11 14:20:00,53.3,44.9,29.92,ENE,67,1.0,5.0,73,0.00,,OVC035,0.00,VWS V14.00,2013-04-11 18:20:00,
2013-04-11 14:25:00,53.2,45.1,29.92,North,360,2.0,9.0,74,0.00,,OVC035,0.00,VWS V14.00,2013-04-11 18:25:00,
2013-04-11 14:30:00,53.2,45.1,29.92,NNE,19,4.0,4.0,74,0.00,,OVC035,0.00,VWS V14.00,2013-04-11 18:30:00,
2013-04-11 14:35:00,53.2,45.1,29.92,NE,45,1.0,3.0,74,0.00,,OVC035,0.00,VWS V14.00,2013-04-11 18:35:00,
2013-04-11 14:40:00,52.9,44.8,29.92,NNE,30,1.0,3.0,74,0.00,,OVC035,0.00,VWS V14.00,2013-04-11 18:40:00,
2013-04-11 14:45:00,52.6,44.6,29.92,ENE,60,1.0,10.0,74,0.00,,OVC035,0.00,VWS V14.00,2013-04-11 18:45:00,
2013-04-11 14:50:00,52.3,44.3,29.92,ENE,76,1.0,3.0,74,0.00,,OVC028,0.00,VWS V14.00,2013-04-11 18:50:00,
2013-04-11 14:55:00,52.3,44.6,29.92,North,9,5.0,6.0,75,0.00,,OVC028,0.00,VWS V14.00,2013-04-11 18:55:00,
2013-04-11 15:00:00,52.3,45.0,29.92,NE,38,4.0,4.0,76,0.00,,OVC028,0.00,VWS V14.00,2013-04-11 19:00:00,
2013-04-11 15:05:00,52.2,44.9,29.92,NNE,14,3.0,7.0,76,0.00,,OVC028,0.00,VWS V14.00,2013-04-11 19:05:00,
2013-04-11 15:10:00,51.9,44.2,29.92,NNE,22,6.0,7.0,75,0.00,,OVC028,0.00,VWS V14.00,2013-04-11 19:10:00,
2013-04-11 15:15:00,51.7,44.0,29.92,NNE,18,2.0,7.0,75,0.00,,OVC028,0.00,VWS V14.00,2013-04-11 19:15:00,
2013-04-11 15:20:00,51.9,44.6,29.92,NNE,20,5.0,5.0,76,0.00,,OVC028,0.00,VWS V14.00,2013-04-11 19:20:00,
2013-04-11 15:25:00,52.3,44.6,29.92,NE,43,4.0,4.0,75,0.00,,OVC028,0.00,VWS V14.00,2013-04-11 19:25:00,
2013-04-11 15:30:00,52.2,44.2,29.92,North,355,2.0,4.0,74,0.00,,OVC028,0.00,VWS V14.00,2013-04-11 19:30:00,
2013-04-11 15:35:00,51.9,44.2,29.92,NE,34,4.0,4.0,75,0.00,,OVC028,0.00,VWS V14.00,2013-04-11 19:35:00,
2013-04-11 15:40:00,51.7,44.0,29.92,North,355,5.0,9.0,75,0.00,,OVC028,0.00,VWS V14.00,2013-04-11 19:40:00,
2013-04-11 15:45:00,51.4,43.8,29.92,North,360,1.0,6.0,75,0.00,,OVC028,0.00,VWS V14.00,2013-04-11 19:45:00,
2013-04-11 15:50:00,51.3,43.7,29.92,NE,35,2.0,3.0,75,0.00,,OVC024,0.00,VWS V14.00,2013-04-11 19:50:00,
2013-04-11 15:55:00,51.6,44.3,29.92,NNE,22,2.0,5.0,76,0.00,,OVC024,0.00,VWS V14.00,2013-04-11 19:55:00,
2013-04-11 16:00:00,51.7,44.0,29.92,NNE,21,1.0,3.0,75,0.00,,OVC024,0.00,VWS V14.00,2013-04-11 20:00:00,
2013-04-11 16:05:00,51.9,44.2,29.92,North,5,2.0,5.0,75,0.00,,OVC024,0.00,VWS V14.00,2013-04-11 20:05:00,
2013-04-11 16:10:00,51.9,43.9,29.92,NNE,23,1.0,3.0,74,0.00,,OVC024,0.00,VWS V14.00,2013-04-11 20:10:00,
2013-04-11 16:15:00,51.7,43.7,29.91,NE,47,0.0,5.0,74,0.00,,OVC024,0.00,VWS V14.00,2013-04-11 20:15:00,
2013-04-11 16:20:00,51.7,43.7,29.91,North,5,4.0,6.0,74,0.00,,OVC024,0.00,VWS V14.00,2013-04-11 20:20:00,
2013-04-11 16:25:00,51.7,43.3,29.91,NNE,24,0.0,4.0,73,0.00,,OVC024,0.00,VWS V14.00,2013-04-11 20:25:00,
2013-04-11 16:30:00,51.7,43.3,29.91,North,355,0.0,3.0,73,0.00,,OVC024,0.00,VWS V14.00,2013-04-11 20:30:00,
2013-04-11 16:35:00,51.7,43.3,29.91,NW,311,0.0,3.0,73,0.00,,OVC024,0.00,VWS V14.00,2013-04-11 20:35:00,
2013-04-11 16:40:00,51.7,43.0,29.91,NE,36,1.0,4.0,72,0.00,,OVC024,0.00,VWS V14.00,2013-04-11 20:40:00,
2013-04-11 16:45:00,51.7,43.0,29.91,NNE,12,1.0,3.0,72,0.00,,OVC024,0.00,VWS V14.00,2013-04-11 20:45:00,
2013-04-11 16:50:00,51.7,42.6,29.91,NNE,13,1.0,4.0,71,0.00,,OVC026,0.00,VWS V14.00,2013-04-11 20:50:00,
2013-04-11 16:55:00,51.6,42.5,29.91,North,5,4.0,5.0,71,0.00,,OVC026,0.00,VWS V14.00,2013-04-11 20:55:00,
2013-04-11 17:00:00,51.6,42.5,29.91,NNE,22,0.0,4.0,71,0.00,,OVC033,0.00,VWS V14.00,2013-04-11 21:00:00,
2013-04-11 17:06:00,51.6,42.5,29.91,NE,42,0.0,2.0,71,0.00,,OVC033,0.00,VWS V14.00,2013-04-11 21:06:00,
2013-04-11 17:11:00,51.6,42.5,29.91,NNE,19,2.0,4.0,71,0.00,,OVC033,0.00,VWS V14.00,2013-04-11 21:11:00,
2013-04-11 17:15:00,51.7,42.6,29.91,North,5,2.0,2.0,71,0.00,,OVC033,0.00,VWS V14.00,2013-04-11 21:15:00,
2013-04-11 17:20:00,51.7,42.2,29.91,North,350,2.0,4.0,70,0.00,,OVC033,0.00,VWS V14.00,2013-04-11 21:20:00,
2013-04-11 17:26:00,51.7,42.2,29.91,North,360,0.0,3.0,70,0.00,,OVC033,0.00,VWS V14.00,2013-04-11 21:26:00,
2013-04-11 17:31:00,51.7,42.2,29.92,NNW,330,2.0,3.0,70,0.00,,OVC033,0.00,VWS V14.00,2013-04-11 21:31:00,
2013-04-11 17:36:00,51.7,42.2,29.92,North,5,2.0,3.0,70,0.00,,OVC033,0.00,VWS V14.00,2013-04-11 21:36:00,
2013-04-11 17:41:00,51.7,42.2,29.92,NNE,22,0.0,1.0,70,0.00,,OVC033,0.00,VWS V14.00,2013-04-11 21:41:00,
2013-04-11 17:46:00,51.7,42.2,29.92,NNW,340,0.0,3.0,70,0.00,,OVC035,0.00,VWS V14.00,2013-04-11 21:46:00,
2013-04-11 17:51:00,51.7,42.2,29.92,North,349,0.0,1.0,70,0.00,,OVC035,0.00,VWS V14.00,2013-04-11 21:51:00,
2013-04-11 17:56:00,51.7,42.2,29.92,NNW,343,0.0,1.0,70,0.00,,OVC035,0.00,VWS V14.00,2013-04-11 21:56:00,
2013-04-11 18:01:00,51.7,42.2,29.92,North,5,2.0,2.0,70,0.00,,OVC035,0.00,VWS V14.00,2013-04-11 22:01:00,
2013-04-11 18:06:00,51.7,42.2,29.92,NNW,336,2.0,4.0,70,0.00,,OVC035,0.00,VWS V14.00,2013-04-11 22:06:00,
2013-04-11 18:11:00,51.7,42.2,29.92,NNE,28,0.0,0.0,70,0.00,,OVC035,0.00,VWS V14.00,2013-04-11 22:11:00,
2013-04-11 18:16:00,51.7,42.2,29.92,NNE,17,2.0,4.0,70,0.00,,OVC035,0.00,VWS V14.00,2013-04-11 22:16:00,
2013-04-11 18:21:00,51.6,42.2,29.92,NNE,16,0.0,0.0,70,0.00,,OVC035,0.00,VWS V14.00,2013-04-11 22:21:00,
2013-04-11 18:26:00,51.6,42.2,29.92,NW,320,1.0,3.0,70,0.00,,OVC035,0.00,VWS V14.00,2013-04-11 22:26:00,
2013-04-11 18:31:00,51.6,41.8,29.93,NNW,336,2.0,2.0,69,0.00,,OVC035,0.00,VWS V14.00,2013-04-11 22:31:00,
2013-04-11 18:36:00,51.6,41.8,29.93,North,355,0.0,0.0,69,0.00,,OVC035,0.00,VWS V14.00,2013-04-11 22:36:00,
2013-04-11 18:42:00,51.6,41.8,29.93,North,355,1.0,1.0,69,0.00,,OVC035,0.00,VWS V14.00,2013-04-11 22:42:00,
2013-04-11 18:47:00,51.4,41.6,29.93,NNE,28,1.0,2.0,69,0.00,,OVC034,0.00,VWS V14.00,2013-04-11 22:47:00,
2013-04-11 18:52:00,51.3,41.1,29.93,NE,40,0.0,4.0,68,0.00,,OVC034,0.00,VWS V14.00,2013-04-11 22:52:00,
2013-04-11 18:57:00,51.1,40.5,29.93,ENE,78,0.0,1.0,67,0.00,,OVC034,0.00,VWS V14.00,2013-04-11 22:57:00,
2013-04-11 19:02:00,51.1,40.2,29.94,NNE,26,1.0,4.0,66,0.00,,OVC034,0.00,VWS V14.00,2013-04-11 23:02:00,
2013-04-11 19:07:00,51.0,39.7,29.94,ENE,60,0.0,2.0,65,0.00,,OVC034,0.00,VWS V14.00,2013-04-11 23:07:00,
2013-04-11 19:12:00,51.0,39.3,29.94,ESE,105,1.0,3.0,64,0.00,,OVC034,0.00,VWS V14.00,2013-04-11 23:12:00,
2013-04-11 19:17:00,50.8,39.1,29.93,North,5,2.0,3.0,64,0.00,,OVC034,0.00,VWS V14.00,2013-04-11 23:17:00,
2013-04-11 19:22:00,50.8,38.7,29.93,NE,42,0.0,2.0,63,0.00,,OVC034,0.00,VWS V14.00,2013-04-11 23:22:00,
2013-04-11 19:27:00,50.8,38.7,29.93,NE,42,0.0,0.0,63,0.00,,OVC034,0.00,VWS V14.00,2013-04-11 23:27:00,
2013-04-11 19:32:00,50.7,38.6,29.94,NE,51,1.0,1.0,63,0.00,,OVC034,0.00,VWS V14.00,2013-04-11 23:32:00,
2013-04-11 19:37:00,50.5,38.0,29.94,ESE,119,1.0,2.0,62,0.00,,OVC034,0.00,VWS V14.00,2013-04-11 23:37:00,
2013-04-11 19:42:00,50.4,37.0,29.94,ENE,69,1.0,3.0,60,0.00,,OVC034,0.00,VWS V14.00,2013-04-11 23:42:00,
2013-04-11 19:47:00,50.1,35.5,29.95,North,355,3.0,3.0,57,0.00,,,0.00,VWS V14.00,2013-04-11 23:47:00,
2013-04-11 19:52:00,49.9,33.9,29.95,East,83,0.0,2.0,54,0.00,,,0.00,VWS V14.00,2013-04-11 23:52:00,
2013-04-11 19:57:00,49.6,32.2,29.95,ENE,78,1.0,3.0,51,0.00,,,0.00,VWS V14.00,2013-04-11 23:57:00,
2013-04-11 20:02:00,49.5,31.1,29.95,East,94,2.0,3.0,49,0.00,,OVC030,0.00,VWS V14.00,2013-04-12 00:02:00,
2013-04-11 20:07:00,49.5,30.1,29.95,East,94,0.0,0.0,47,0.00,,OVC030,0.00,VWS V14.00,2013-04-12 00:07:00,
2013-04-11 20:12:00,49.5,30.1,29.95,East,90,1.0,3.0,47,0.00,,OVC030,0.00,VWS V14.00,2013-04-12 00:12:00,
2013-04-11 20:17:00,49.4,30.0,29.96,East,90,0.0,1.0,47,0.00,,OVC030,0.00,VWS V14.00,2013-04-12 00:17:00,
2013-04-11 20:22:00,49.2,28.2,29.96,East,82,2.0,4.0,44,0.00,,OVC030,0.00,VWS V14.00,2013-04-12 00:22:00,
2013-04-11 20:27:00,49.1,27.6,29.96,ENE,61,0.0,1.0,43,0.00,,OVC030,0.00,VWS V14.00,2013-04-12 00:27:00,
2013-04-11 20:32:00,48.9,26.2,29.97,SE,128,1.0,5.0,41,0.00,,OVC032,0.00,VWS V14.00,2013-04-12 00:32:00,
2013-04-11 20:38:00,48.8,26.7,29.97,SE,128,0.0,0.0,42,0.00,,OVC032,0.00,VWS V14.00,2013-04-12 00:38:00,
2013-04-11 20:43:00,48.6,26.0,29.97,East,101,0.0,2.0,41,0.00,,OVC032,0.00,VWS V14.00,2013-04-12 00:43:00,
2013-04-11 20:48:00,48.6,27.1,29.98,East,101,1.0,2.0,43,0.00,,OVC032,0.00,VWS V14.00,2013-04-12 00:48:00,
2013-04-11 20:53:00,48.3,26.9,29.98,ENE,57,0.0,2.0,43,0.00,,OVC032,0.00,VWS V14.00,2013-04-12 00:53:00,
2013-04-11 20:58:00,48.2,27.9,29.98,SE,136,1.0,2.0,45,0.00,,OVC032,0.00,VWS V14.00,2013-04-12 00:58:00,
2013-04-11 21:03:00,48.0,30.3,29.99,East,80,0.0,2.0,50,0.00,,OVC032,0.00,VWS V14.00,2013-04-12 01:03:00,
2013-04-11 21:08:00,48.0,31.7,29.99,ENE,61,0.0,1.0,53,0.00,,OVC032,0.00,VWS V14.00,2013-04-12 01:08:00,
2013-04-11 21:13:00,48.0,33.9,29.99,NE,39,1.0,2.0,58,0.00,,OVC032,0.00,VWS V14.00,2013-04-12 01:13:00,
2013-04-11 21:18:00,47.9,33.0,29.99,NE,34,0.0,1.0,56,0.00,,OVC032,0.00,VWS V14.00,2013-04-12 01:18:00,
2013-04-11 21:23:00,47.6,32.2,29.99,ENE,65,2.0,2.0,55,0.00,,OVC032,0.00,VWS V14.00,2013-04-12 01:23:00,
2013-04-11 21:28:00,47.3,30.1,29.99,NE,50,2.0,4.0,51,0.00,,OVC032,0.00,VWS V14.00,2013-04-12 01:28:00,
2013-04-11 21:33:00,47.0,29.3,29.99,ENE,75,2.0,4.0,50,0.00,,OVC032,0.00,VWS V14.00,2013-04-12 01:33:00,
2013-04-11 21:38:00,46.8,29.6,29.99,East,83,0.0,1.0,51,0.00,,OVC032,0.00,VWS V14.00,2013-04-12 01:38:00,
2013-04-11 21:43:00,46.7,30.0,29.99,ENE,57,4.0,4.0,52,0.00,,OVC032,0.00,VWS V14.00,2013-04-12 01:43:00,
2013-04-11 21:48:00,46.5,30.3,29.99,ENE,61,0.0,2.0,53,0.00,,OVC040,0.00,VWS V14.00,2013-04-12 01:48:00,
2013-04-11 21:53:00,46.4,30.2,29.99,ENE,61,0.0,3.0,53,0.00,,OVC040,0.00,VWS V14.00,2013-04-12 01:53:00,
2013-04-11 21:58:00,46.2,30.0,29.99,East,86,2.0,2.0,53,0.00,,OVC040,0.00,VWS V14.00,2013-04-12 01:58:00,
2013-04-11 22:03:00,46.2,30.5,30.00,East,86,3.0,6.0,54,0.00,,OVC040,0.00,VWS V14.00,2013-04-12 02:03:00,
2013-04-11 22:08:00,46.1,30.4,30.00,ENE,60,0.0,2.0,54,0.00,,OVC040,0.00,VWS V14.00,2013-04-12 02:08:00,
2013-04-11 22:13:00,46.0,30.8,30.00,East,92,0.0,2.0,55,0.00,,OVC040,0.00,VWS V14.00,2013-04-12 02:13:00,
2013-04-11 22:18:00,45.8,30.6,30.00,ENE,78,1.0,2.0,55,0.00,,OVC040,0.00,VWS V14.00,2013-04-12 02:18:00,
2013-04-11 22:23:00,45.7,30.5,30.00,NE,56,1.0,5.0,55,0.00,,OVC040,0.00,VWS V14.00,2013-04-12 02:23:00,
2013-04-11 22:28:00,45.5,30.3,30.00,NE,54,0.0,0.0,55,0.00,,OVC040,0.00,VWS V14.00,2013-04-12 02:28:00,
2013-04-11 22:33:00,45.5,30.7,30.00,NE,47,0.0,1.0,56,0.00,,OVC040,0.00,VWS V14.00,2013-04-12 02:33:00,
2013-04-11 22:38:00,45.4,30.6,30.00,ENE,63,1.0,3.0,56,0.00,,OVC040,0.00,VWS V14.00,2013-04-12 02:38:00,
2013-04-11 22:43:00,45.2,30.0,30.00,ESE,111,1.0,5.0,55,0.00,,OVC040,0.00,VWS V14.00,2013-04-12 02:43:00,
2013-04-11 22:48:00,45.1,29.9,30.00,ENE,76,2.0,3.0,55,0.00,,OVC036,0.00,VWS V14.00,2013-04-12 02:48:00,
2013-04-11 22:53:00,45.1,29.9,30.00,East,91,5.0,5.0,55,0.00,,OVC036,0.00,VWS V14.00,2013-04-12 02:53:00,
2013-04-11 22:58:00,44.9,29.7,30.00,ENE,60,2.0,4.0,55,0.00,,OVC036,0.00,VWS V14.00,2013-04-12 02:58:00,
2013-04-11 23:03:00,44.8,29.6,30.00,ENE,67,0.0,1.0,55,0.00,,OVC036,0.00,VWS V14.00,2013-04-12 03:03:00,
2013-04-11 23:08:00,44.8,29.6,30.00,East,89,0.0,1.0,55,0.00,,OVC036,0.00,VWS V14.00,2013-04-12 03:08:00,
2013-04-11 23:13:00,44.6,29.9,30.00,East,79,2.0,5.0,56,0.00,,OVC036,0.00,VWS V14.00,2013-04-12 03:13:00,
2013-04-11 23:18:00,44.6,29.9,30.00,East,80,2.0,2.0,56,0.00,,OVC036,0.00,VWS V14.00,2013-04-12 03:18:00,
2013-04-11 23:23:00,44.5,29.8,30.00,NNE,13,4.0,4.0,56,0.00,,OVC036,0.00,VWS V14.00,2013-04-12 03:23:00,
2013-04-11 23:29:00,44.5,29.8,30.00,East,98,0.0,2.0,56,0.00,,OVC036,0.00,VWS V14.00,2013-04-12 03:29:00,
2013-04-11 23:33:00,44.5,30.2,30.00,East,98,0.0,1.0,57,0.00,,OVC036,0.00,VWS V14.00,2013-04-12 03:33:00,
2013-04-11 23:39:00,44.3,29.6,30.00,East,87,0.0,2.0,56,0.00,,OVC036,0.00,VWS V14.00,2013-04-12 03:39:00,
2013-04-11 23:44:00,44.3,30.0,30.00,NE,40,2.0,3.0,57,0.00,,OVC036,0.00,VWS V14.00,2013-04-12 03:44:00,
2013-04-11 23:49:00,44.3,30.9,30.01,NE,45,1.0,2.0,59,0.00,,OVC030,0.00,VWS V14.00,2013-04-12 03:49:00,
2013-04-11 23:54:00,44.2,31.2,30.01,NE,42,0.0,3.0,60,0.00,,OVC030,0.00,VWS V14.00,2013-04-12 03:54:00,
2013-04-11 23:59:00,44.1,31.1,30.01,NNE,18,1.0,3.0,60,0.00,,OVC030,0.00,VWS V14.00,2013-04-12 03:59:00,